Greenwood, SC

11:48 AM EST on January 19, 2018 (GMT -0500)
Greenwood County

Weather History for KGRD - September, 2014

Change the Weather History Date:

Sunday, September 7, 2014

  Actual Average (KAND) Record (KAND)
Temperature  
Mean Temperature 80 °F -  
Max Temperature 89 °F 85 °F 96 °F (1954)
Min Temperature 71 °F 65 °F 56 °F (1984)
Cooling Degree Days 14    
Growing Degree Days 30 (Base 50)    
Moisture  
Dew Point 71 °F    
Average Humidity 82    
Maximum Humidity 93    
Minimum Humidity 57    
Precipitation  
Precipitation 0.01 in - - ()
Sea Level Pressure  
Sea Level Pressure 29.99 in    
Wind  
Wind Speed 3 mph (ENE)    
Max Wind Speed 10 mph    
Max Gust Speed 20 mph    
Visibility 10 miles    
Events Rain , Thunderstorm    
Averages and records for this station are not official NWS values.
T = Trace of Precipitation, MM = Missing Value Source: NWS Daily Summary

Daily Weather History Graph

Daily Weather History Graph

Search for Another Location

Airport or City:

Trip Planner

Search our weather history database for the weather conditions in past years. The results will help you decide how hot, cold, wet, or windy it might be!

Date:

Astronomy

Sep. 07, 2014 Rise Set
Actual Time 7:06 AM EDT 7:46 PM EDT
Civil Twilight 6:40 AM EDT 8:11 PM EDT
Nautical Twilight 6:10 AM EDT 8:41 PM EDT
Astronomical Twilight 5:40 AM EDT 9:12 PM EDT
Moon 6:43 PM EDT (9/7) 5:20 AM EDT (9/7)
Length of Visible Light 13h 30m
Length of Day
12h 40m
Waxing Gibbous, 97% of the Moon is Illuminated
Sep 7
Waxing Gibbous
Sep 8
Full
Sep 15
Last Quarter
Sep 24
New
Oct 1
First Quarter

Hourly Weather History & Observations

Time (EDT) Temp. Heat Index Dew Point Humidity Pressure Visibility Wind Dir Wind Speed Gust Speed Precip Events Conditions
12:56 AM 75.0 °F - 71.1 °F 87% 29.99 in 10.0 mi Calm Calm - N/A   Scattered Clouds
1:56 AM 73.0 °F - 71.1 °F 93% 29.97 in 10.0 mi Calm Calm - N/A   Clear
2:56 AM 73.0 °F - 70.0 °F 90% 29.97 in 10.0 mi Calm Calm - N/A   Clear
3:56 AM 73.0 °F - 70.0 °F 90% 29.96 in 9.0 mi Calm Calm - N/A   Clear
4:56 AM 72.0 °F - 70.0 °F 93% 29.95 in 9.0 mi Calm Calm - N/A   Clear
5:56 AM 72.0 °F - 70.0 °F 93% 29.98 in 9.0 mi Calm Calm - N/A   Clear
6:56 AM 71.1 °F - 69.1 °F 93% 29.99 in 8.0 mi Calm Calm - N/A   Clear
7:56 AM 73.0 °F - 70.0 °F 90% 30.01 in 8.0 mi ENE 3.5 mph - N/A   Clear
8:56 AM 77.0 °F - 71.1 °F 82% 30.02 in 10.0 mi NE 6.9 mph - N/A   Clear
10:56 AM 84.0 °F 89.6 °F 72.0 °F 67% 30.02 in 10.0 mi NE 5.8 mph - N/A   Scattered Clouds
12:56 PM 88.0 °F 93.8 °F 71.1 °F 57% 30.01 in 10.0 mi NE 10.4 mph - N/A   Partly Cloudy
1:56 PM 86.0 °F 92.2 °F 72.0 °F 63% 29.99 in 10.0 mi ENE 4.6 mph - N/A   Mostly Cloudy
2:56 PM 87.1 °F 92.8 °F 71.1 °F 59% 29.96 in 10.0 mi NNE 6.9 mph - N/A   Mostly Cloudy
3:09 PM 86.0 °F 91.5 °F 71.1 °F 61% 29.98 in 10.0 mi North 5.8 mph - N/A Thunderstorm Mostly Cloudy
3:24 PM 82.9 °F 87.5 °F 71.1 °F 67% 29.98 in 10.0 mi NW 5.8 mph - 0.00 in Rain , Thunderstorm Light Thunderstorms and Rain
3:56 PM 79.0 °F - 71.1 °F 77% 29.96 in 10.0 mi ESE 10.4 mph 19.6 mph 0.00 in Thunderstorm Thunderstorm
4:33 PM 77.0 °F - 71.1 °F 82% 29.98 in 10.0 mi SSE 9.2 mph - 0.00 in Thunderstorm Mostly Cloudy
4:54 PM 77.0 °F - 71.6 °F 83% 29.98 in 10.0 mi SSE 5.8 mph - 0.00 in   Scattered Clouds
4:56 PM 77.0 °F - 72.0 °F 84% 29.96 in 10.0 mi SSE 5.8 mph - 0.00 in   Scattered Clouds
5:56 PM 78.1 °F - 71.1 °F 79% 29.96 in 10.0 mi East 3.5 mph - N/A   Clear
6:56 PM 77.0 °F - 72.0 °F 84% 29.97 in 10.0 mi NE 3.5 mph - N/A   Scattered Clouds
7:56 PM 75.9 °F - 71.1 °F 85% 29.99 in 10.0 mi Variable 4.6 mph - N/A   Mostly Cloudy
8:56 PM 73.9 °F - 71.1 °F 91% 29.99 in 9.0 mi NE 3.5 mph - 0.00 in Rain Light Rain
9:23 PM 73.9 °F - 71.1 °F 91% 30.03 in 10.0 mi NE 6.9 mph - 0.00 in   Mostly Cloudy
9:32 PM 73.9 °F - 71.1 °F 91% 30.04 in 10.0 mi NE 5.8 mph - 0.01 in   Overcast
9:56 PM 73.9 °F - 70.0 °F 87% 30.03 in 10.0 mi NE 8.1 mph - 0.01 in   Overcast
10:56 PM 73.0 °F - 71.1 °F 93% 30.05 in 10.0 mi NE 4.6 mph - N/A   Overcast
11:56 PM 73.9 °F - 71.1 °F 91% 30.05 in 10.0 mi NE 4.6 mph - N/A   Overcast